Terminal Aerodrome Forecast
Issued by NWS

Home | Current Version | Previous Version | Text Only | Print | Product List | Glossary On
Versions: 1 2 3 4 5 6 7 8 9 10 11 12 13 14
233
FTUS43 KFGF 040643 AAA
TAFTVF
TAF AMD
KTVF 040643Z 0407/0506 15011KT P6SM OVC012
      TEMPO 0408/0410 5SM BR OVC010
     FM041000 15011KT 5SM -SN OVC008
     FM041400 18010KT P6SM OVC003
     FM041700 21010KT P6SM OVC008
     FM050500 21006KT P6SM SCT010=

USA.gov is the U.S. government's official web portal to all federal, state and local government web resources and services.